User: anonymous   Login
Location: Saint Peter Port
(49.4500°N, 2.5330°W)
Time: 18:13:56
(UTC+00:00)
Language:

Cosmos 2242 Rocket - Orbit

View from above orbital plane
View from above orbital plane
View from above satellite
View from above satellite

Ground track
Ground track

The orbit data is extracted from the following two-line orbital elements,

1 22627U 93024B   17022.13280434  .00000064  00000-0  56356-5 0  9994
2 22627  82.5204 235.7505 0025059  88.4890  32.6775 14.78062645280572
Epoch (UTC): 22 January 2017 03:11:14
Eccentricity: 0.0025059
inclination: 82.5204°
perigee height: 618 km
apogee height: 653 km
right ascension of ascending node: 235.7505°
argument of perigee: 88.4890°
revolutions per day: 14.78062645
mean anomaly at epoch: 32.6775°
orbit number at epoch: 28057

The dashed part of the orbit path shows where the satellite is in the earth's shadow,  

DLR